This demonstration page uses our WeatherBlox Daily Observations layout. Learn more.

Left ArrowRight Arrow

39.01783, -85.05884

Hourly Observations for October 20, 2018

Temp ( °F °C ) Dew Point ( °F °C ) Humidity (%) Winds ( mph kmh ) Pressure ( in mb ) Visibility ( mi km ) Precip ( " mm )
12:52 am 00:52 Cloudy 49 9.4 48 8.9 97 97 WSW 10 17 29.96 1015 9 14 N/A
1:52 am 01:52 Cloudy 49 9.4 48 8.9 97 97 WSW 9 15 29.94 1014 9 14 N/A
2:52 am 02:52 Cloudy 50 10 49 9.4 96 96 WSW 9 15 29.94 1014 8 13 N/A
3:52 am 03:52 Cloudy 50 10 49 9.4 96 96 WSW 9 15 29.94 1014 7 11 N/A
4:38 am 04:38 Cloudy with Light Rain 50 10 50 10 100 100 WSW 8 13 29.94 1014 5 8 N/A
4:52 am 04:52 Cloudy with Mist and Fog 51 10.6 50 10 96 96 W 9 15 29.93 1014 5 8 N/A
5:52 am 05:52 Cloudy with Mist and Fog 51 10.6 50 10 96 96 WSW 9 15 29.93 1013 4 6 N/A
6:52 am 06:52 Cloudy with Mist and Fog 51 10.6 51 10.6 100 100 WSW 9 15 29.93 1013 5 8 N/A
7:52 am 07:52 Cloudy with Mist and Fog 52 11.1 50 10 93 93 WSW 6 9 29.93 1013 6 10 N/A
8:37 am 08:37 Mostly Cloudy with Mist and Fog 52 11.1 50 10 93 93 SW 9 15 29.94 1014 5 8 N/A
8:52 am 08:52 Mostly Cloudy with Mist and Fog 52 11.1 50 10 93 93 SW 8 13 29.93 1014 5 8 N/A
9:52 am 09:52 Cloudy 53 11.7 50 10 89 89 WSW 10 17 29.94 1014 8 13 N/A
10:52 am 10:52 Mostly Cloudy 56 13.3 48 8.9 75 75 WSW 13 20 29.93 1014 10 16 N/A
11:52 am 11:52 Partly Cloudy 58 14.4 48 8.9 70 70 W 12 19 29.91 1013 10 16 N/A
12:52 pm 12:52 Partly Cloudy 58 14.4 42 5.6 56 56 W 24 39 29.89 1012 10 16 N/A
1:52 pm 13:52 Partly Cloudy 60 15.6 38 3.3 44 44 W 20 31 29.85 1011 10 16 N/A
2:52 pm 14:52 Partly Cloudy 60 15.6 35 1.7 39 39 W 26 43 29.84 1010 10 16 N/A
3:52 pm 15:52 Partly Cloudy 61 16.1 36 2.2 39 39 W 23 37 29.82 1010 10 16 N/A
4:52 pm 16:52 Mostly Cloudy 61 16.1 33 0.6 35 35 WNW 25 41 29.83 1010 10 16 N/A
5:52 pm 17:52 Partly Cloudy 58 14.4 27 -2.8 31 31 WNW 28 44 29.85 1011 10 16 N/A
6:52 pm 18:52 Mostly Cloudy 56 13.3 26 -3.3 32 32 NW 35 56 29.89 1012 10 16 N/A
7:52 pm 19:52 Mostly Cloudy 47 8.3 31 -0.6 54 54 NW 30 48 30.02 1017 10 16 N/A
7:55 pm 19:55 Mostly Cloudy 46 7.8 31 -0.6 56 56 NW 32 52 30.06 1018 10 16 N/A
8:52 pm 20:52 Mostly Cloudy 43 6.1 24 -4.4 47 47 NW 23 37 30.06 1018 10 16 N/A
9:52 pm 21:52 Mostly Clear 40 4.4 27 -2.8 60 60 NW 20 31 30.11 1020 10 16 N/A
10:52 pm 22:52 Mostly Cloudy 40 4.4 28 -2.2 63 63 NW 20 31 30.17 1022 10 16 N/A
11:52 pm 23:52 Cloudy 40 4.4 30 -1.1 68 68 NNW 18 30 30.21 1023 10 16 N/A

Powered by AerisWeather